Location: Palermo
(38.1157°N, 13.3613°E)
Time: 14:49:13
(UTC+02:00)

ISS - Visible Passes

Search period start: 03 August 2020 00:00
Search period end: 13 August 2020 00:00
Orbit: 419 x 420 km, 51.6° (Epoch: 04 August)

Date Brightness Start Highest point End Pass type
(mag) Time Alt. Az. Time Alt. Az. Time Alt. Az.
03 Aug -2.1 22:03:51 10° WNW 22:06:37 24° SW 22:06:58 23° SW visible
04 Aug -2.9 21:15:58 10° WNW 21:19:11 43° SW 21:21:23 18° SSE visible
06 Aug -1.1 21:18:45 10° W 21:20:32 14° SW 21:22:19 10° SSW visible
